FW5417 Weather Reports


Display with metric or nautical units.
time (UTC)temp
F
wind
direction
speed
MPH
gust
MPH
rain 1hr
in
rain 24hr
in
rain mn
in
humidity
%
barometer
mb
20260507165511 55 204 14.0 20.0 0.02 0.13 0.13 85 1003.8
20260507165011 55 199 8.0 16.0 0.04 0.13 0.13 87 1003.5
20260507164511 55 188 10.0 15.0 0.05 0.13 0.13 87 1004.2
20260507164010 55 209 7.0 14.0 0.05 0.12 0.12 87 1005.6
20260507163511 56 308 4.0 16.0 0.05 0.12 0.12 87 1006.6
20260507163011 56 327 3.0 16.0 0.05 0.12 0.12 85 1007.9
20260507162510 57 300 4.0 11.0 0.04 0.11 0.11 83 1007.8
20260507162011 57 284 2.0 8.0 0.04 0.11 0.11 83 1007.4
20260507161511 57 197 4.0 9.0 0.04 0.11 0.11 82 1006.5
20260507161010 57 207 4.0 11.0 0.04 0.11 0.11 82 1006.0
20260507160512 57 182 4.0 15.0 0.04 0.11 0.11 83 1005.6
20260507160010 57 158 6.0 18.0 0.04 0.11 0.11 82 1004.4
20260507155010 58 166 7.0 21.0 0.02 0.09 0.09 80 1004.8
20260507154511 59 181 4.0 21.0 0.01 0.08 0.08 78 1004.9
20260507154010 59 198 11.0 21.0 0.00 0.07 0.07 73 1006.2
20260507153511 60 298 5.0 16.0 0.00 0.07 0.07 68 1007.8
20260507153010 61 306 6.0 15.0 0.00 0.07 0.07 64 1009.5
20260507152511 61 243 6.0 22.0 0.00 0.07 0.07 63 1009.6
20260507152011 62 207 2.0 22.0 0.00 0.07 0.07 61 1007.6
20260507151012 63 189 10.0 27.0 0.00 0.07 0.07 60 1005.9
20260507150010 62 194 6.0 27.0 0.01 0.07 0.07 64 1005.4
20260507145511 62 182 13.0 27.0 0.01 0.07 0.07 65 1004.8
20260507145010 62 160 10.0 27.0 0.01 0.07 0.07 67 1004.3
20260507144011 61 194 8.0 40.0 0.01 0.07 0.07 67 1004.1
20260507143510 61 188 20.0 40.0 0.01 0.07 0.07 67 1004.3
20260507143012 61 209 14.0 36.0 0.01 0.07 0.07 68 1004.3
20260507142511 60 214 17.0 36.0 0.01 0.07 0.07 71 1004.3
20260507142011 60 205 12.0 32.0 0.01 0.07 0.07 73 1004.4
20260507141511 59 208 15.0 27.0 0.01 0.07 0.07 78 1004.8
20260507141010 59 205 16.0 27.0 0.01 0.07 0.07 77 1005.0
20260507140510 60 211 12.0 30.0 0.01 0.07 0.07 74 1005.7
20260507140010 60 197 15.0 31.0 0.00 0.06 0.06 70 1005.9
20260507135512 62 188 15.0 31.0 0.00 0.06 0.06 62 1006.1
20260507134510 62 211 14.0 30.0 0.00 0.06 0.06 63 1006.2
20260507134010 62 194 15.0 30.0 0.00 0.06 0.06 63 1004.4
20260507133511 63 183 6.0 24.0 0.00 0.06 0.06 65 1003.8
20260507133010 63 188 5.0 24.0 0.00 0.06 0.06 67 1003.0
20260507132510 63 196 10.0 25.0 0.00 0.06 0.06 66 1003.1
20260507132011 63 207 7.0 27.0 0.00 0.06 0.06 67 1003.2
20260507131510 63 212 10.0 27.0 0.00 0.06 0.06 68 1002.6
20260507131011 64 202 12.0 25.0 0.00 0.06 0.06 67 1002.8
20260507130510 64 194 8.0 25.0 0.00 0.06 0.06 69 1003.0
20260507130010 64 183 13.0 25.0 0.00 0.06 0.06 69 1003.8
20260507125510 64 191 10.0 21.0 0.00 0.06 0.06 68 1003.3
20260507125011 64 193 14.0 21.0 0.00 0.06 0.06 66 1003.2
20260507124010 65 189 5.0 25.0 0.00 0.06 0.06 66 1002.7
20260507123010 65 174 8.0 20.0 0.00 0.06 0.06 71 1002.9
20260507122510 65 177 10.0 21.0 0.00 0.06 0.06 73 1002.5
20260507122011 65 173 7.0 22.0 0.00 0.06 0.06 74 1002.7
20260507121510 65 183 9.0 22.0 0.00 0.06 0.06 76 1002.1
20260507121010 65 185 10.0 22.0 0.00 0.06 0.06 77 1002.2
20260507120511 65 189 10.0 29.0 0.00 0.06 0.06 79 1002.3
20260507120010 65 189 9.0 29.0 0.00 0.06 0.06 81 1001.9
20260507115510 65 176 11.0 24.0 0.00 0.06 0.06 83 1002.0
20260507115011 65 171 12.0 25.0 0.00 0.06 0.06 83 1001.9
20260507114510 66 167 7.0 25.0 0.00 0.06 0.06 84 1001.7
20260507114010 66 165 10.0 22.0 0.00 0.06 0.06 84 1001.7
20260507113511 66 166 7.0 23.0 0.00 0.06 0.06 84 1001.6
20260507113010 66 162 7.0 23.0 0.00 0.06 0.06 84 1001.5
20260507112010 66 187 9.0 22.0 0.00 0.06 0.06 85 1001.5
20260507111511 66 193 5.0 27.0 0.00 0.06 0.06 85 1001.0
20260507111010 66 195 11.0 27.0 0.00 0.06 0.06 86 1001.0
20260507110510 67 196 10.0 27.0 0.00 0.06 0.06 85 1000.8
20260507110010 67 183 4.0 23.0 0.00 0.06 0.06 86 1001.1
20260507104511 67 187 10.0 21.0 0.00 0.06 0.06 86 1000.6
20260507104010 67 187 8.0 21.0 0.00 0.06 0.06 87 1000.7
20260507103510 67 174 6.0 20.0 0.00 0.06 0.06 87 1000.3
20260507103010 67 165 7.0 18.0 0.00 0.06 0.06 86 1000.3
20260507102511 67 182 9.0 23.0 0.00 0.06 0.06 86 999.8
20260507102010 67 185 9.0 23.0 0.00 0.06 0.06 86 999.8
20260507101511 67 181 8.0 18.0 0.00 0.06 0.06 86 999.6
20260507101011 67 191 9.0 23.0 0.00 0.06 0.06 86 999.8
20260507100510 67 178 9.0 23.0 0.00 0.06 0.06 86 999.5
20260507100010 67 175 8.0 22.0 0.00 0.06 0.06 86 999.5
20260507095510 67 190 8.0 18.0 0.00 0.06 0.06 87 999.3
20260507095010 67 194 9.0 18.0 0.00 0.06 0.06 87 999.1
20260507094011 67 192 8.0 20.0 0.00 0.06 0.06 87 998.7
20260507093510 67 181 11.0 21.0 0.00 0.06 0.06 88 998.4
20260507093010 68 201 6.0 22.0 0.00 0.06 0.06 88 998.3
20260507092009 68 178 11.0 22.0 0.01 0.06 0.06 88 998.1
20260507091010 68 196 10.0 22.0 0.01 0.06 0.06 88 997.7
20260507090511 68 172 9.0 20.0 0.01 0.06 0.06 88 998.2
20260507090010 68 176 5.0 17.0 0.01 0.06 0.06 88 998.3
20260507085510 68 171 7.0 17.0 0.01 0.06 0.06 89 998.6
20260507085010 68 173 5.0 17.0 0.01 0.06 0.06 89 998.8
20260507084510 68 189 6.0 17.0 0.02 0.06 0.06 89 998.9
20260507084010 67 191 8.0 14.0 0.06 0.06 0.06 89 999.2
20260507083510 67 177 9.0 14.0 0.06 0.06 0.06 89 998.3
20260507083011 68 186 6.0 13.0 0.06 0.06 0.06 89 998.3
20260507082510 68 182 4.0 13.0 0.06 0.06 0.06 88 998.5
20260507082010 68 166 2.0 14.0 0.05 0.05 0.05 88 998.8
20260507081511 68 179 4.0 14.0 0.05 0.05 0.05 87 998.4
20260507081010 68 189 7.0 13.0 0.05 0.05 0.05 87 999.0
20260507080511 68 182 6.0 11.0 0.05 0.05 0.05 88 998.9
20260507075522 68 185 3.0 11.0 0.05 0.05 0.05 88 999.2
20260507075022 69 178 2.0 11.0 0.05 0.05 0.05 87 998.9
20260507074522 69 164 4.0 11.0 0.04 0.04 0.04 85 999.1
20260507073522 70 148 3.0 11.0 0.00 0.00 0.00 84 999.2
20260507073022 70 142 4.0 11.0 0.00 0.00 0.00 84 999.2
20260507072523 70 140 3.0 11.0 0.00 0.00 0.00 83 999.6
20260507072022 71 158 6.0 11.0 0.00 0.00 0.00 81 999.5
20260507071522 71 158 3.0 11.0 0.00 0.00 0.00 79 999.4
20260507070522 72 151 3.0 11.0 0.00 0.00 0.00 81 999.6
20260507070022 72 168 3.0 13.0 0.00 0.00 0.00 82 999.2
20260507065522 72 164 4.0 18.0 0.00 0.00 0.00 83 998.9
20260507065022 73 161 11.0 18.0 0.00 0.00 0.00 85 999.3
20260507064523 75 167 2.0 6.0 0.00 0.00 0.00 88 999.1
20260507063522 75 219 2.0 14.0 0.00 0.00 0.00 87 999.2
20260507063022 75 273 7.0 14.0 0.00 0.00 0.00 87 999.1
20260507062522 75 317 3.0 9.0 0.00 0.00 0.00 87 998.6
20260507061523 75 348 4.0 8.0 0.00 0.00 0.00 88 998.3
20260507061022 74 344 4.0 8.0 0.00 0.00 0.00 88 998.5
20260507060521 75 330 4.0 9.0 0.00 0.00 0.00 88 998.5
20260507060022 75 307 7.0 9.0 0.00 0.00 0.00 87 998.5
20260507055022 75 303 4.0 7.0 0.00 0.00 0.00 87 998.7
20260507054022 75 305 5.0 7.0 0.00 0.00 0.00 86 999.1
20260507053022 76 303 4.0 7.0 0.00 0.00 0.00 85 999.2
20260507052522 76 306 4.0 7.0 0.00 0.00 0.00 85 999.2
20260507052022 76 313 4.0 9.0 0.00 0.00 0.00 85 999.3
20260507051522 76 320 4.0 9.0 0.00 0.00 0.00 85 999.4
20260507051022 76 325 6.0 11.0 0.00 0.00 0.00 85 999.2
20260507050521 76 334 5.0 11.0 0.00 0.00 0.00 84 998.9
20260507050022 76 334 8.0 11.0 0.00 0.00 0.00 84 999.0
20260507045522 76 331 6.0 11.0 0.00 0.00 0.00 84 999.2
20260507045022 76 326 6.0 11.0 0.00 0.00 0.00 83 999.3
20260507044523 76 328 6.0 11.0 0.00 0.00 0.00 83 999.3
20260507044022 76 336 7.0 11.0 0.00 0.00 0.00 83 999.0
20260507043523 76 337 8.0 11.0 0.00 0.00 0.00 83 999.1
20260507043022 76 339 5.0 14.0 0.00 0.00 0.00 83 999.0
20260507041522 77 341 8.0 11.0 0.00 0.00 0.00 83 999.1
20260507041022 77 349 8.0 11.0 0.00 0.00 0.00 82 999.1
20260507040522 77 337 6.0 11.0 0.00 0.00 0.00 82 999.3
20260507040021 77 332 4.0 9.0 0.00 0.00 0.00 81 999.3
20260507035022 77 337 5.0 14.0 0.00 0.00 0.00 81 999.2
20260507034522 77 339 11.0 15.0 0.00 0.00 0.00 81 999.5
20260507034022 77 342 9.0 15.0 0.00 0.00 0.00 81 999.3
20260507033522 77 341 9.0 16.0 0.00 0.00 0.00 81 999.5
20260507033022 77 341 11.0 16.0 0.00 0.00 0.00 81 999.5
20260507032522 77 341 10.0 15.0 0.00 0.00 0.00 81 999.8
20260507031522 77 339 8.0 11.0 0.00 0.00 0.00 81 999.5
20260507031022 77 338 8.0 11.0 0.00 0.00 0.00 81 999.8
20260507030522 78 333 7.0 11.0 0.00 0.00 0.00 80 999.6
20260507030022 78 336 5.0 8.0 0.00 0.00 0.00 80 1000.1
20260507025523 78 344 4.0 8.0 0.00 0.00 0.00 80 999.9
20260507025023 78 333 4.0 7.0 0.00 0.00 0.00 80 1000.2
20260507024022 78 336 4.0 11.0 0.00 0.00 0.00 80 1000.2
20260507023522 78 342 4.0 11.0 0.00 0.00 0.00 79 1000.1
20260507023022 78 345 8.0 11.0 0.00 0.00 0.00 79 1000.2
20260507022521 78 344 8.0 9.0 0.00 0.00 0.00 79 999.9
20260507022022 78 342 5.0 8.0 0.00 0.00 0.00 78 1000.3
20260507021522 78 339 4.0 9.0 0.00 0.00 0.00 78 1000.1
20260507021022 79 338 6.0 9.0 0.00 0.00 0.00 78 1000.3
20260507020522 79 342 5.0 8.0 0.00 0.00 0.00 78 1000.1
20260507015522 79 349 3.0 11.0 0.00 0.00 0.00 78 999.9
20260507015022 79 341 4.0 11.0 0.00 0.00 0.00 77 1000.1
20260507014521 79 338 5.0 9.0 0.00 0.00 0.00 78 999.9
20260507014022 78 342 5.0 9.0 0.00 0.00 0.00 78 1000.0
20260507013522 78 356 6.0 14.0 0.00 0.00 0.00 78 1000.0
20260507013023 79 7 5.0 14.0 0.00 0.00 0.00 77 999.6
20260507012522 79 2 9.0 14.0 0.00 0.00 0.00 77 999.6
20260507012021 79 355 7.0 13.0 0.00 0.00 0.00 77 999.5
20260507011521 79 352 7.0 15.0 0.00 0.00 0.00 77 999.8
20260507011022 79 357 8.0 15.0 0.00 0.00 0.00 77 999.6
20260507010522 79 355 11.0 15.0 0.00 0.00 0.00 76 999.6
20260507010021 79 345 8.0 15.0 0.00 0.00 0.00 76 999.4
20260507005021 79 350 8.0 16.0 0.00 0.00 0.00 76 999.3
20260507004521 79 351 7.0 18.0 0.00 0.00 0.00 76 999.4
20260507004022 79 351 12.0 18.0 0.00 0.00 0.00 76 999.5
20260507002521 80 342 8.0 14.0 0.00 0.00 0.00 76 999.6
20260507001522 80 342 8.0 15.0 0.00 0.00 0.00 75 999.5
20260507000522 80 351 6.0 14.0 0.00 0.00 0.00 75 999.7
20260507000022 80 356 6.0 14.0 0.00 0.00 0.00 74 999.7
20260506235521 81 344 8.0 15.0 0.00 0.00 0.00 73 999.9
20260506234521 81 341 5.0 14.0 0.00 0.00 0.00 72 999.8
20260506234022 82 343 8.0 14.0 0.00 0.00 0.00 71 999.7
20260506233521 82 338 7.0 16.0 0.00 0.00 0.00 71 999.9
20260506233021 82 340 7.0 18.0 0.00 0.00 0.00 70 999.7
20260506232522 82 345 11.0 21.0 0.00 0.00 0.00 69 999.7
20260506232021 82 346 7.0 21.0 0.00 0.00 0.00 69 999.5
20260506231522 83 341 12.0 21.0 0.00 0.00 0.00 69 999.3
20260506230522 83 332 8.0 22.0 0.00 0.00 0.00 69 999.5
20260506225522 83 357 8.0 23.0 0.00 0.00 0.00 69 999.5
20260506225021 83 350 13.0 23.0 0.00 0.00 0.00 69 999.5
20260506223522 82 350 11.0 54.0 0.00 0.00 0.00 70 999.5
20260506223022 83 348 11.0 20.0 0.00 0.00 0.00 70 999.8
20260506222521 83 358 8.0 17.0 0.00 0.00 0.00 70 1000.0
20260506222022 83 5 9.0 17.0 0.00 0.00 0.00 70 999.7
20260506221521 83 358 8.0 16.0 0.00 0.00 0.00 69 1000.1
20260506221023 83 356 8.0 11.0 0.00 0.00 0.00 69 1000.1
20260506220021 83 342 6.0 13.0 0.00 0.00 0.00 69 999.8
20260506215522 84 349 6.0 14.0 0.00 0.00 0.00 69 1000.0
20260506214522 84 343 7.0 11.0 0.00 0.00 0.00 69 1000.0
20260506213521 84 341 6.0 13.0 0.00 0.00 0.00 68 1000.2
20260506213022 85 340 5.0 14.0 0.00 0.00 0.00 68 1000.4
20260506212521 85 346 8.0 16.0 0.00 0.00 0.00 67 1000.3
20260506212022 85 344 8.0 22.0 0.00 0.00 0.00 66 1000.1
20260506211522 85 334 10.0 22.0 0.00 0.00 0.00 66 1000.1
20260506211021 85 346 9.0 17.0 0.00 0.00 0.00 66 1000.0
20260506210521 85 353 15.0 20.0 0.00 0.00 0.00 65 1000.0
20260506210021 86 347 12.0 20.0 0.00 0.00 0.00 65 999.7
20260506205521 86 340 9.0 17.0 0.00 0.00 0.00 65 999.9
20260506205022 86 334 9.0 17.0 0.00 0.00 0.00 64 999.8
20260506204022 86 339 12.0 22.0 0.00 0.00 0.00 64 1000.0
20260506203521 87 334 11.0 22.0 0.00 0.00 0.00 63 1000.0
20260506203021 87 342 12.0 21.0 0.00 0.00 0.00 63 1000.2
20260506202522 87 336 13.0 21.0 0.00 0.00 0.00 63 1000.2
20260506202021 87 329 13.0 21.0 0.00 0.00 0.00 63 1000.1
20260506201521 87 341 14.0 18.0 0.00 0.00 0.00 63 1000.0
20260506201022 87 342 12.0 20.0 0.00 0.00 0.00 63 1000.4
20260506200521 87 333 9.0 20.0 0.00 0.00 0.00 63 1000.4
20260506200021 87 340 15.0 22.0 0.00 0.00 0.00 63 1000.4
20260506195521 87 355 9.0 23.0 0.00 0.00 0.00 63 1000.2
20260506195022 87 340 17.0 23.0 0.00 0.00 0.00 63 1000.5
20260506194521 87 320 10.0 18.0 0.00 0.00 0.00 63 1000.3
20260506194021 87 337 13.0 21.0 0.00 0.00 0.00 63 1000.5
20260506193521 87 343 13.0 24.0 0.00 0.00 0.00 62 1000.4
20260506193021 87 342 13.0 27.0 0.00 0.00 0.00 62 1000.3
20260506192021 88 342 10.0 20.0 0.00 0.00 0.00 62 1000.4
20260506191521 87 343 11.0 20.0 0.00 0.00 0.00 63 1000.6
20260506191021 88 323 9.0 18.0 0.00 0.00 0.00 62 1000.2
20260506185521 87 324 15.0 27.0 0.00 0.00 0.00 63 1000.7
20260506184521 87 318 13.0 23.0 0.00 0.00 0.00 62 1000.9
20260506184021 87 323 9.0 20.0 0.00 0.00 0.00 62 1000.9
20260506183521 87 332 13.0 22.0 0.00 0.00 0.00 63 1001.1
20260506183021 86 345 14.0 27.0 0.00 0.00 0.00 62 1001.0
20260506182521 86 342 15.0 27.0 0.00 0.00 0.00 63 1001.0
20260506182020 87 341 16.0 22.0 0.00 0.00 0.00 62 1000.9
20260506181521 87 346 15.0 27.0 0.00 0.00 0.00 62 1001.1
20260506181021 87 343 11.0 30.0 0.00 0.00 0.00 63 1001.2
20260506175521 87 343 17.0 25.0 0.00 0.00 0.00 62 1001.2
20260506175021 87 343 12.0 24.0 0.00 0.00 0.00 63 1001.4
20260506173521 87 351 11.0 27.0 0.00 0.00 0.00 62 1001.6
20260506173021 87 352 14.0 27.0 0.00 0.00 0.00 62 1001.6
20260506172521 87 340 17.0 24.0 0.00 0.00 0.00 62 1001.8
20260506172022 87 325 15.0 21.0 0.00 0.00 0.00 62 1001.9
20260506171020 87 325 8.0 21.0 0.00 0.00 0.00 61 1002.1
20260506170521 87 334 12.0 17.0 0.00 0.00 0.00 61 1002.2
20260506170021 87 356 10.0 17.0 0.00 0.00 0.00 62 1002.2